Stations météo

réclame
Mon MeteoGroup
Landivisiau, France (7106): Température de l'air & dewpoint: 11.12.2018 06:00:00 - 17.12.2018 06:00:00 (CET)Landivisiau, France (7106): Température de l'air 5cm: 11.12.2018 06:00:00 - 17.12.2018 06:00:00 (CET)Landivisiau, France (7106): Température de l'air -20cm: 11.12.2018 06:00:00 - 17.12.2018 06:00:00 (CET)Landivisiau, France (7106): Vitesse du vent & gusts: 11.12.2018 06:00:00 - 17.12.2018 06:00:00 (CET)Landivisiau, France (7106): Direction du vent: 11.12.2018 06:00:00 - 17.12.2018 06:00:00 (CET)Landivisiau, France (7106): reduced air pressure: 11.12.2018 06:00:00 - 17.12.2018 06:00:00 (CET)Landivisiau, France (7106): visibility: 11.12.2018 06:00:00 - 17.12.2018 06:00:00 (CET)Landivisiau, France (7106): Quantités de précipitations: 11.12.2018 06:00:00 - 17.12.2018 06:00:00 (CET)
Date & Time tt [°C] td [°C] tt 5cm [°C] tt -20cm [°C] ff [km/h] ff [knt] fx [km/h] fx [knt] dd ppp [hPa] vv [km] rr [mm]
17.12.2018 06:00:00 5,8 5,4 3,0 8,1 15 8 22 12 S 1018,7 16 0,0
17.12.2018 05:00:00 5,7 5,0 3,1 8,1 15 8 22 12 SSW 1018,1 15 0,0
17.12.2018 04:00:00 6,3 5,3 4,0 8,2 19 10 24 13 SW 1017,9 18 0,0
17.12.2018 03:00:00 5,8 4,9 3,6 8,3 18 10 26 14 SW 1017,0 18 0,0
17.12.2018 02:00:00 5,7 5,0 2,8 8,3 16 9 21 11 SW 1016,6 20 0,0
17.12.2018 01:00:00 6,1 4,7 4,7 8,3 16 9 24 13 WSW 1015,9 42 0,0
17.12.2018 00:00:00 6,6 5,1 5,2 8,4 16 9 29 16 WSW 1015,3 41 0,0
16.12.2018 23:00:00 6,6 4,8 4,9 8,4 18 10 22 12 SW 1014,4 52 0,0
16.12.2018 22:00:00 7,5 5,5 4,0 8,4 15 8 26 14 W 1013,5 12 0,0
16.12.2018 21:00:00 7,5 5,1 5,1 8,5 15 8 50 27 WSW 1012,6 43 0,2
16.12.2018 20:00:00 7,7 4,6 5,5 8,5 17 9 26 14 WSW 1011,4 44 0,0
16.12.2018 19:00:00 8,2 5,3 6,2 8,5 16 9 26 14 WSW 1010,1 44 0,0
16.12.2018 18:00:00 7,9 5,4 6,4 8,5 21 11 31 17 W 1008,7 20 0,4
16.12.2018 17:00:00 8,6 6,7 7,5 8,5 15 8 29 16 WSW 1007,4 20 0,0
16.12.2018 16:00:00 8,6 6,9 7,5 8,5 21 12 37 20 WSW 1006,4 36 0,0
16.12.2018 15:00:00 7,8 7,0 6,6 8,5 24 13 35 19 SW 1005,6 20 1,2
16.12.2018 14:00:00 7,1 5,7 6,5 8,5 29 16 61 33 SW 1005,5 8 2,3
16.12.2018 13:00:00 7,8 7,2 7,2 8,5 21 11 37 20 SSW 1005,7 5 1,4
16.12.2018 12:00:00 7,5 6,4 7,1 8,5 24 13 48 26 S 1006,4 14 3,8
16.12.2018 11:00:00 8,9 7,7 7,7 8,5 24 13 37 20 S 1006,6 4,2 0,6
16.12.2018 10:00:00 8,3 7,1 6,1 8,6 15 8 22 12 S 1007,4 17 0,0
16.12.2018 09:00:00 7,1 6,2 4,5 8,6 16 9 22 12 S 1007,8 16 0,0
16.12.2018 08:00:00 6,5 5,8 4,1 8,7 14 8 18 10 S 1008,3 15 0,0
16.12.2018 07:00:00 6,5 5,8 3,7 8,8 13 7 18 10 S 1008,8 15 0,0
16.12.2018 06:00:00 6,4 5,3 4,2 8,8 13 7 28 15 S 1009,2 20 0,4
16.12.2018 05:00:00 7,7 5,8 5,6 8,9 22 12 35 19 WSW 1009,9 1,6 2,0
16.12.2018 04:00:00 7,2 5,7 5,8 8,9 13 7 37 20 SSW 1009,9 20 0,4
16.12.2018 03:00:00 6,7 6,0 4,1 8,9 14 7 34 18 SSW 1010,1 39 0,0
16.12.2018 02:00:00 8,2 5,5 6,7 8,9 26 14 37 20 WSW 1010,1 12 0,6
16.12.2018 01:00:00 8,5 6,5 6,9 9,0 19 11 28 15 WSW 1009,9 19 0,0
16.12.2018 00:00:00 8,6 7,1 7,2 9,0 17 9 29 16 WSW 1009,7 18 0,0
15.12.2018 23:00:00 8,8 7,2 7,5 9,0 23 12 52 28 WSW 1009,4 17 0,8
15.12.2018 22:00:00 8,7 6,5 7,5 9,0 19 10 31 17 WSW 1009,2 18 0,0
15.12.2018 21:00:00 9,3 6,9 8,4 9,0 21 12 42 23 WSW 1008,8 17 0,0
15.12.2018 20:00:00 9,7 7,3 9,1 8,9 28 15 48 26 W 1008,0 15 0,0
15.12.2018 19:00:00 10,3 7,2 9,7 8,9 29 16 52 28 W 1007,0 17 0,0
15.12.2018 18:00:00 10,8 7,3 10,1 8,8 31 17 61 33 W 1006,2 15 0,0
15.12.2018 17:00:00 12,6 10,5 11,9 8,6 44 24 65 35 WSW 1004,9 11 0,0
15.12.2018 16:00:00 13,1 11,8 12,4 8,4 44 24 67 36 WSW 1003,8 6 2,0
15.12.2018 15:00:00 13,5 13,0 13,1 8,3 44 24 70 38 SW 1003,9 3,0 2,5
15.12.2018 14:00:00 13,3 12,8 13,1 8,1 36 19 65 35 SSW 1004,8 2,2 2,8
15.12.2018 13:00:00 13,3 13,0 12,7 8,1 39 21 59 32 SSW 1005,9 2,8 0,6
15.12.2018 12:00:00 12,7 12,5 10,1 8,0 28 15 46 25 SSW 1007,3 16 1,6
15.12.2018 11:00:00 10,0 9,8 9,5 7,9 18 10 35 19 SSE 1008,0 1,5 0,4
15.12.2018 10:00:00 9,5 9,4 8,8 7,9 25 14 37 20 S 1008,6 2,2 0,0
15.12.2018 09:00:00 9,0 8,7 8,1 7,8 19 11 37 20 SSE 1009,2 31 1,4
15.12.2018 08:00:00 8,4 8,0 7,8 7,8 24 13 44 24 SSE 1009,9 31 0,8
15.12.2018 07:00:00 8,1 7,5 7,2 7,8 32 17 52 28 S 1010,3 11 1,8
15.12.2018 06:00:00 7,6 7,0 6,8 7,7 32 18 55 30 SSE 1010,7 10 0,2
15.12.2018 05:00:00 7,2 6,6 6,9 7,7 33 18 55 30 S 1011,4 6 0,2
15.12.2018 04:00:00 7,2 6,6 6,2 7,7 31 17 54 29 SSE 1012,6 4,2 0,6
15.12.2018 03:00:00 6,5 6,1 5,9 7,7 25 13 46 25 SSE 1013,8 4,6 0,4
15.12.2018 02:00:00 6,1 5,5 5,5 7,7 30 16 46 25 SSE 1014,5 4,4 0,6
15.12.2018 01:00:00 5,8 5,2 5,1 7,7 21 11 42 23 SSE 1015,4 5 0,6
15.12.2018 00:00:00 5,3 4,6 4,4 7,7 24 13 41 22 SSE 1016,7 4,3 0,2
14.12.2018 23:00:00 4,6 3,4 3,9 7,7 23 13 35 19 SSE 1017,5 6 0,0
14.12.2018 22:00:00 4,2 2,9 3,7 7,8 24 13 34 18 SSE 1018,4 5 0,2
14.12.2018 21:00:00 4,2 2,7 3,9 7,8 18 10 28 15 SSE 1019,1 6 0,0
14.12.2018 20:00:00 3,9 2,4 3,0 7,8 21 12 31 17 SSE 1019,8 6 0,0
14.12.2018 19:00:00 3,5 2,3 2,9 7,9 20 11 29 16 SSE 1019,3 6 0,0
14.12.2018 18:00:00 3,9 2,7 2,9 7,9 19 10 29 16 SSE 1019,8 6 0,0
14.12.2018 17:00:00 3,6 2,0 3,1 7,9 22 12 31 17 S 1019,7 6 0,0
14.12.2018 16:00:00 4,2 2,5 4,1 7,9 19 10 28 15 S 1019,6 7 0,0
14.12.2018 15:00:00 3,8 2,3 3,4 7,9 21 11 29 16 SSE 1019,3 8 0,0
14.12.2018 14:00:00 3,2 2,0 2,9 7,9 21 12 28 15 SSE 1020,1 7 0,0
14.12.2018 13:00:00 2,7 1,8 2,7 7,9 20 11 28 15 SSE 1020,2 6 0,0
14.12.2018 12:00:00 2,9 1,7 2,8 7,9 18 10 24 13 S 1020,3 4,0 0,0
14.12.2018 11:00:00 2,7 1,2 2,5 8,0 15 8 21 11 SSE 1020,2 7 0,0
14.12.2018 10:00:00 2,5 1,0 1,9 8,0 9 5 18 10 SSE 1019,8 7 0,0
14.12.2018 09:00:00 2,2 0,7 1,4 8,0 13 7 21 11 SSE 1018,9 7 0,0
14.12.2018 08:00:00 2,4 0,9 2,1 8,0 12 6 16 9 SSE 1018,3 7 0,0
14.12.2018 07:00:00 2,4 1,2 2,2 8,1 7 4 11 6 SSE 1018,3 6 0,0
14.12.2018 06:00:00 2,5 1,5 2,1 8,1 8 4 11 6 E 1017,8 4,8 0,0
14.12.2018 05:00:00 2,4 1,5 1,9 8,2 6 3 13 7 SE 1017,0 5 0,0
14.12.2018 04:00:00 2,5 1,5 2,3 8,2 4 2 9 5 ESE 1017,1 4,8 0,2
14.12.2018 03:00:00 2,5 1,5 2,1 8,3 6 3 16 9 SE 1016,7 6 0,0
14.12.2018 02:00:00 2,6 1,6 2,1 8,3 10 5 21 11 S 1015,9 6 0,0
14.12.2018 01:00:00 2,2 1,9 2,2 8,4 11 6 21 11 ESE 1015,9 4,0 0,4
14.12.2018 00:00:00 2,5 2,2 2,4 8,4 12 6 16 9 ESE 1015,6 1,7 0,6
13.12.2018 23:00:00 2,5 2,2 2,4 8,5 13 7 18 10 ESE 1015,1 1,1 0,2
13.12.2018 22:00:00 2,8 2,4 2,6 8,5 11 6 24 13 E 1014,5 1,7 0,0
13.12.2018 21:00:00 3,1 2,2 2,9 8,5 15 8 28 15 ESE 1013,5 4,5 0,0
13.12.2018 20:00:00 3,3 2,6 3,1 8,6 21 11 29 16 ESE 1012,5 6 0,0
13.12.2018 19:00:00 3,8 3,4 3,5 8,6 14 8 18 10 E 1011,8 3,5 0,4
13.12.2018 18:00:00 3,7 3,1 3,5 8,6 12 6 21 11 SE 1011,3 2,5 0,8
13.12.2018 17:00:00 4,1 3,5 4,0 8,6 15 8 22 12 ESE 1009,8 4,6 0,0
13.12.2018 16:00:00 4,7 4,3 4,7 8,7 14 7 21 11 E 1008,8 2,7 1,0
13.12.2018 15:00:00 5,1 4,5 4,9 8,7 16 9 28 15 ESE 1008,0 2,1 1,0
13.12.2018 14:00:00 4,9 4,2 4,5 8,7 22 12 34 18 ESE 1007,2 12 0,4
13.12.2018 13:00:00 4,5 3,8 4,3 8,7 24 13 34 18 ESE 1007,1 6 0,6
13.12.2018 12:00:00 4,4 3,5 4,3 8,8 24 13 34 18 ESE 1006,8 13 0,2
13.12.2018 11:00:00 4,3 3,3 4,0 8,9 23 12 31 17 ESE 1006,4 14 0,2
13.12.2018 10:00:00 4,4 3,5 3,9 8,9 25 14 37 20 SE 1006,0 15 0,0
13.12.2018 09:00:00 4,2 3,5 3,6 9,0 24 13 39 21 ESE 1005,7 7 1,0
13.12.2018 08:00:00 4,1 2,9 3,6 9,1 26 14 41 22 SE 1005,6 6 0,8
13.12.2018 07:00:00 4,5 3,2 4,0 9,1 25 13 42 23 SE 1005,4 10 0,0
13.12.2018 06:00:00 4,7 3,2 4,6 9,2 22 12 42 23 SE 1005,8 15 0,0
13.12.2018 05:00:00 4,9 3,6 4,8 9,2 29 15 50 27 SSE 1005,9 13 0,0
13.12.2018 04:00:00 4,9 3,7 4,7 9,3 25 14 50 27 SE 1006,3 10 0,0
13.12.2018 03:00:00 5,2 4,0 4,9 9,4 30 16 42 23 SE 1006,8 10 0,0
13.12.2018 02:00:00 5,3 4,3 5,0 9,5 28 15 42 23 SE 1007,5 8 0,2
13.12.2018 01:00:00 5,0 4,1 4,9 9,5 24 13 44 24 SE 1008,4 6 0,0
13.12.2018 00:00:00 5,0 4,1 4,9 9,5 26 14 42 23 SE 1009,5 5 0,0
12.12.2018 23:00:00 5,1 4,2 5,1 9,6 27 14 46 25 SE 1010,2 7 0,0
12.12.2018 22:00:00 5,6 4,7 5,6 9,7 27 15 44 24 SSE 1011,5 7 0,0
12.12.2018 21:00:00 5,9 5,0 5,9 9,7 26 14 42 23 SSE 1012,6 8 0,0
12.12.2018 20:00:00 6,1 5,4 6,0 9,7 17 9 37 20 SSE 1013,7 13 0,0
12.12.2018 19:00:00 6,0 5,6 6,0 9,7 21 12 35 19 SSE 1014,0 6 0,0
12.12.2018 18:00:00 6,3 5,7 6,3 9,7 25 13 35 19 SE 1014,6 9 0,0
12.12.2018 17:00:00 7,0 6,3 7,1 9,7 18 10 28 15 SSE 1015,2 11 0,0
12.12.2018 16:00:00 8,2 7,1 8,9 9,6 17 9 24 13 S 1015,4 16 0,0
12.12.2018 15:00:00 8,3 6,9 9,5 9,5 15 8 21 11 S 1016,0 15 0,0
12.12.2018 14:00:00 8,2 7,3 9,0 9,5 13 7 24 13 SSW 1017,0 13 0,0
12.12.2018 13:00:00 8,2 7,8 8,8 9,5 13 7 22 12 S 1017,6 8 0,0
12.12.2018 12:00:00 7,9 7,8 7,5 9,5 16 9 22 12 SSW 1018,6 4,8 0,0
12.12.2018 11:00:00 6,9 6,5 6,5 9,5 9 5 16 9 SSE 1018,6 0,1 0,0
12.12.2018 10:00:00 6,9 6,6 6,2 9,5 11 6 21 11 SSW 1019,0 4,6 0,0
12.12.2018 09:00:00 7,4 7,1 6,7 9,5 14 8 18 10 SSW 1019,0 15 0,0
12.12.2018 08:00:00 7,6 7,3 6,6 9,5 9 5 13 7 S 1018,6 8 0,2
12.12.2018 07:00:00 7,5 7,1 6,6 9,6 9 5 16 9 S 1018,6 32 0,0
12.12.2018 06:00:00 7,7 7,3 7,0 9,6 9 5 15 8 S 1018,7 10 0,0
12.12.2018 05:00:00 7,8 7,4 7,4 9,6 10 5 16 9 S 1018,7 43 0,2
12.12.2018 04:00:00 7,7 7,1 6,8 9,6 10 5 18 10 WSW 1018,6 7 0,0
12.12.2018 03:00:00 7,9 7,5 7,2 9,6 7 4 18 10 SSE 1017,9 53 0,2
12.12.2018 02:00:00 8,1 7,8 7,8 9,6 10 5 16 9 S 1018,2 9 0,6
12.12.2018 01:00:00 8,5 8,2 8,2 9,6 11 6 15 8 SE 1018,4 8 0,4
12.12.2018 00:00:00 8,9 8,0 8,4 9,6 2 1 22 12 NW 1018,7 8 2,2
11.12.2018 23:00:00 9,3 7,7 8,4 9,6 10 5 34 18 S 1018,4 6 0,4
11.12.2018 22:00:00 9,6 7,0 8,7 9,7 19 11 37 20 S 1017,9 31 0,0
11.12.2018 21:00:00 9,0 6,8 7,9 9,7 22 12 35 19 S 1018,4 20 0,0
11.12.2018 20:00:00 8,6 6,6 8,0 9,7 23 12 42 23 S 1018,9 19 0,0
11.12.2018 19:00:00 8,9 6,5 8,2 9,7 31 17 44 24 S 1019,0 20 0,0
11.12.2018 18:00:00 8,9 6,2 8,2 9,7 18 10 31 17 S 1019,4 33 0,0
11.12.2018 17:00:00 9,2 5,9 8,6 9,7 23 13 41 22 S 1020,2 35 0,0
11.12.2018 16:00:00 9,8 6,3 - - 31 17 44 24 S 1019,9 30 -
11.12.2018 15:00:00 10,1 7,2 10,4 9,6 24 13 44 24 S 1020,7 10 0,0
11.12.2018 14:00:00 9,5 6,4 10,1 9,6 29 15 52 28 S 1021,4 20 0,0
11.12.2018 13:00:00 9,5 5,7 10,1 9,6 21 11 34 18 S 1022,0 47 0,0
11.12.2018 12:00:00 8,8 5,5 9,1 9,6 24 13 37 20 S 1023,3 35 0,0
11.12.2018 11:00:00 8,2 5,7 7,4 9,6 13 7 21 11 SSE 1023,4 20 0,0
11.12.2018 10:00:00 7,0 4,8 6,6 9,6 15 8 22 12 SSE 1024,0 19 0,0
11.12.2018 09:00:00 7,4 6,2 7,2 9,6 14 7 22 12 SSE 1024,4 17 0,0
11.12.2018 08:00:00 7,3 6,6 6,8 9,7 12 7 16 9 SE 1024,4 15 0,0
11.12.2018 07:00:00 7,0 6,1 5,7 9,7 10 6 15 8 ESE 1024,5 14 0,0
11.12.2018 06:00:00 8,0 6,3 7,0 9,7 11 6 15 8 SSE 1024,9 18 0,0

tt = Température de l'air
td = dewpoint
tt 5cm = Température de l'air 5cm
tt -20cm = Température de l'air -20cm
ff = Vitesse du vent
fx = gusts
dd = Direction du vent
ppp = reduced air pressure
vv = visibility
rr = Quantités de précipitations

stations d'obs. à proximité